TimeEDT,TemperatureF,Dew PointF,Humidity,Sea Level PressureIn,VisibilityMPH,Wind Direction,Wind SpeedMPH,Gust SpeedMPH,PrecipitationIn,Events,Conditions,WindDirDegrees,DateUTC
12:58 AM,42.4,42.3,99,30.18,10.0,Calm,Calm,-,N/A,,Clear,0,2013-10-27 04:58:00
1:58 AM,42.1,41.9,99,30.16,10.0,Calm,Calm,-,N/A,,Clear,0,2013-10-27 05:58:00
2:58 AM,42.4,42.3,99,30.14,10.0,Calm,Calm,-,N/A,,Clear,0,2013-10-27 06:58:00
3:58 AM,41.4,41.2,99,30.13,10.0,Calm,Calm,-,N/A,,Clear,0,2013-10-27 07:58:00
4:58 AM,40.5,40.1,99,30.12,10.0,Calm,Calm,-,N/A,,Clear,0,2013-10-27 08:58:00
5:58 AM,40.5,40.3,99,30.12,10.0,Calm,Calm,-,N/A,,Clear,0,2013-10-27 09:58:00
6:58 AM,40.6,40.5,99,30.13,10.0,Calm,Calm,-,N/A,,Clear,0,2013-10-27 10:58:00
7:58 AM,39.9,39.7,99,30.15,10.0,Calm,Calm,-,N/A,,Clear,0,2013-10-27 11:58:00
8:58 AM,47.1,44.1,89,30.16,10.0,Calm,Calm,-,N/A,,Clear,0,2013-10-27 12:58:00
9:58 AM,57.7,44.4,61,30.18,10.0,WNW,8.1,-,N/A,,Clear,290,2013-10-27 13:58:00
10:58 AM,63.0,44.1,50,30.18,10.0,NW,5.8,-,N/A,,Clear,310,2013-10-27 14:58:00
11:58 AM,67.5,45.1,45,30.17,10.0,Variable,5.8,-,N/A,,Clear,0,2013-10-27 15:58:00
12:58 PM,70.3,49.3,47,30.16,10.0,NW,3.5,-,N/A,,Clear,310,2013-10-27 16:58:00
1:58 PM,71.1,50.5,48,30.13,10.0,West,4.6,-,N/A,,Clear,280,2013-10-27 17:58:00
2:58 PM,72.5,52.2,49,30.10,10.0,Calm,Calm,-,N/A,,Clear,0,2013-10-27 18:58:00
3:58 PM,73.2,53.4,50,30.10,10.0,SW,5.8,-,N/A,,Clear,220,2013-10-27 19:58:00
4:58 PM,73.9,53.6,49,30.10,10.0,Variable,4.6,-,N/A,,Clear,0,2013-10-27 20:58:00
5:58 PM,71.4,54.9,56,30.10,10.0,SSW,4.6,-,N/A,,Clear,200,2013-10-27 21:58:00
6:58 PM,64.4,58.1,80,30.11,10.0,Calm,Calm,-,N/A,,Clear,0,2013-10-27 22:58:00
7:58 PM,59.5,56.8,91,30.13,10.0,Calm,Calm,-,N/A,,Clear,0,2013-10-27 23:58:00
8:58 PM,57.6,56.3,96,30.14,10.0,Calm,Calm,-,N/A,,Clear,0,2013-10-28 00:58:00
9:58 PM,55.8,55.4,99,30.15,10.0,Calm,Calm,-,N/A,,Clear,0,2013-10-28 01:58:00
10:58 PM,56.7,54.7,93,30.16,10.0,Calm,Calm,-,N/A,,Clear,0,2013-10-28 02:58:00
11:58 PM,54.9,54.9,100,30.16,10.0,Calm,Calm,-,N/A,,Clear,0,2013-10-28 03:58:00